BEIDOU-3 M17 (43706 NORAD) Tracking and Keplerian Element Data

This shows tracking and keplerian element data for the satellite.

Feedback or suggestion? Click here.




ElementValue
Catalog43706
NameBEIDOU-3 M17
Epoch Orbit52
Epoch Day351.73739163
Epoch Year2018
RAAN275.7082
Inclination54.9246
Eccentricity0.0115252
Argument of Perigee237.4964
Mean Anonmoly39.9885
Mean Motion1.83652368
Decay Rate-3.2E-07
L11 43706U 18093A 18351.73739163 -.00000032 00000-0 00000+0 0 9993
L22 43706 54.9246 275.7082 0115252 237.4964 39.9885 1.83652368 525

Live tracking and technical data element details for BEIDOU-3 M17 (NORAD 43706). BEIDOU-3 M17 can be tracked NOW for your location showing map with azimuth and elevation plus other details from your city location.

Track the satellite on the map from your city or location and see movement details for azimuth, elevation, latitude, longitude, range, height, and movement on the map or in text.







IsCatalogInMostPopularTable: catalog: 43706, numindb: 34
Update: records affected: 1



GetName: 43706 BEIDOU-3 M17

Hit Count: updated at: Wed, 23 Jan 2019 02:40:52 GMT